Maryland Science Center, MD

9:22 AM EST on December 07, 2019 (GMT -0500)
Maryland Science Center

Weather History for KDMH - October, 2019

Change the Weather History Date:

Thursday, October 24, 2019

  Actual Average Record
Temperature  
Mean Temperature 58 °F 57 °F  
Max Temperature 69 °F 66 °F 81 °F (2001)
Min Temperature 47 °F 49 °F 37 °F (2003)
Degree Days  
Heating Degree Days 7 8  
Month to date heating degree days 82 127  
Since 1 July heating degree days 82 145  
Cooling Degree Days 0 1  
Month to date cooling degree days 57 39  
Year to date cooling degree days 2046 1664  
Growing Degree Days 8 (Base 50)    
Moisture  
Dew Point 42 °F    
Average Humidity 55    
Maximum Humidity 77    
Minimum Humidity 33    
Precipitation  
Precipitation 0.00 in 0.09 in 0.56 in (2007)
Month to date precipitation 3.36 2.47  
Year to date precipitation 34.23 33.93  
Sea Level Pressure  
Sea Level Pressure 30.30 in    
Wind  
Wind Speed - (North)    
Max Wind Speed -    
Max Gust Speed -    
T = Trace of Precipitation, MM = Missing Value Source: NWS Daily Summary

Daily Weather History Graph

Daily Weather History Graph

Search for Another Location

Airport or City:

Astronomy

Oct. 24, 2019 Rise Set
Actual Time 7:25 AM EDT 6:15 PM EDT
Civil Twilight 6:57 AM EDT 6:42 PM EDT
Nautical Twilight 6:26 AM EDT 7:14 PM EDT
Astronomical Twilight 5:55 AM EDT 7:45 PM EDT
Moon 2:54 AM EDT (10/24) 4:39 PM EDT (10/24)
Length of Visible Light 11h 44m
Length of Day
10h 50m
Waning Crescent, 17% of the Moon is Illuminated
Oct 24
Waning Crescent
Oct 27
New
Nov 4
First Quarter
Nov 12
Full
Nov 19
Last Quarter

Hourly Weather History & Observations

Time (EDT) Temp. Dew Point Humidity Pressure Visibility Wind Dir Wind Speed Gust Speed Precip Events Conditions
12:54 AM 57.0 °F 32.0 °F 39% 30.22 in - North - - N/A   Unknown
2:54 AM 50.0 °F 37.9 °F 63% 30.24 in - North - - N/A   Unknown
3:54 AM 48.9 °F 37.0 °F 64% 30.25 in - North - - N/A   Unknown
4:54 AM 48.0 °F 37.0 °F 66% 30.27 in - North - - N/A   Unknown
5:54 AM 48.0 °F 37.9 °F 68% 30.31 in - North - - N/A   Unknown
7:54 AM 48.9 °F 39.0 °F 69% 30.33 in - North - - N/A   Unknown
8:54 AM 53.1 °F 39.9 °F 61% 30.38 in - North - - N/A   Unknown
10:54 AM 63.0 °F 42.1 °F 46% 30.40 in - North - - N/A   Unknown
11:54 AM 63.0 °F 42.1 °F 46% 30.38 in - North - - N/A   Unknown
1:54 PM 66.9 °F 39.9 °F 37% 30.31 in - North - - N/A   Unknown
2:54 PM 69.1 °F 39.0 °F 33% 30.29 in - North - - N/A   Unknown
3:54 PM 66.0 °F 39.9 °F 38% 30.27 in - North - - N/A   Unknown
4:54 PM 64.9 °F 43.0 °F 45% 30.25 in - North - - N/A   Unknown
5:54 PM 64.0 °F 46.0 °F 52% 30.27 in - North - - N/A   Unknown
6:54 PM 62.1 °F 46.9 °F 58% 30.28 in - North - - N/A   Unknown
7:54 PM 61.0 °F 46.9 °F 60% 30.30 in - North - - N/A   Unknown
8:54 PM 60.1 °F 46.9 °F 62% 30.30 in - North - - N/A   Unknown
10:54 PM 57.0 °F 48.9 °F 74% 30.32 in - North - - N/A   Unknown
11:54 PM 55.9 °F 48.9 °F 77% 30.31 in - North - - N/A   Unknown